TimeEDT,TemperatureF,Dew PointF,Humidity,Sea Level PressureIn,VisibilityMPH,Wind Direction,Wind SpeedMPH,Gust SpeedMPH,PrecipitationIn,Events,Conditions,WindDirDegrees,DateUTC
12:53 AM,73.9,70.0,87,29.99,10.0,SW,5.8,-,N/A,,Overcast,230,2014-06-09 04:53:00
1:53 AM,75.0,69.1,82,29.97,10.0,West,6.9,-,N/A,,Overcast,280,2014-06-09 05:53:00
2:53 AM,73.9,69.1,85,29.94,10.0,West,5.8,-,N/A,,Mostly Cloudy,280,2014-06-09 06:53:00
3:53 AM,73.0,69.1,87,29.91,10.0,West,4.6,-,N/A,,Scattered Clouds,270,2014-06-09 07:53:00
4:53 AM,73.0,69.1,87,29.91,10.0,NW,3.5,-,N/A,,Scattered Clouds,310,2014-06-09 08:53:00
5:53 AM,73.0,69.1,87,29.91,10.0,NNW,4.6,-,N/A,,Mostly Cloudy,330,2014-06-09 09:53:00
6:53 AM,73.9,68.0,82,29.94,10.0,Calm,Calm,-,N/A,,Mostly Cloudy,0,2014-06-09 10:53:00
7:53 AM,75.9,69.1,79,29.97,10.0,Calm,Calm,-,N/A,,Mostly Cloudy,0,2014-06-09 11:53:00
8:53 AM,78.1,68.0,71,29.98,10.0,NW,4.6,-,N/A,,Mostly Cloudy,320,2014-06-09 12:53:00
9:53 AM,82.0,68.0,62,29.99,10.0,North,4.6,-,N/A,,Mostly Cloudy,350,2014-06-09 13:53:00
10:53 AM,86.0,69.1,57,29.99,10.0,North,4.6,-,N/A,,Scattered Clouds,360,2014-06-09 14:53:00
11:53 AM,89.1,68.0,50,30.00,10.0,Variable,4.6,-,N/A,,Scattered Clouds,0,2014-06-09 15:53:00
12:53 PM,90.0,68.0,48,30.00,10.0,SSE,6.9,-,N/A,,Scattered Clouds,150,2014-06-09 16:53:00
1:53 PM,91.0,66.9,45,29.98,10.0,Variable,3.5,-,N/A,,Mostly Cloudy,0,2014-06-09 17:53:00
3:53 PM,91.9,66.0,42,29.94,10.0,SSE,9.2,-,N/A,Thunderstorm,Thunderstorm,160,2014-06-09 19:53:00
4:53 PM,93.0,66.0,41,29.93,10.0,Variable,6.9,-,N/A,Thunderstorm,Thunderstorm,0,2014-06-09 20:53:00
5:53 PM,87.1,70.0,57,29.94,10.0,East,11.5,-,N/A,Thunderstorm,Thunderstorm,80,2014-06-09 21:53:00
6:07 PM,86.0,70.0,59,29.94,10.0,ENE,11.5,-,N/A,,Mostly Cloudy,70,2014-06-09 22:07:00
6:53 PM,88.0,64.9,46,29.94,10.0,ENE,10.4,-,0.00,,Mostly Cloudy,60,2014-06-09 22:53:00
7:42 PM,86.0,66.9,53,29.97,10.0,ENE,4.6,-,N/A,Thunderstorm,Thunderstorm,60,2014-06-09 23:42:00
7:53 PM,86.0,69.1,57,29.96,10.0,NW,9.2,-,N/A,Thunderstorm,Thunderstorm,320,2014-06-09 23:53:00
8:21 PM,82.0,69.1,65,29.97,10.0,West,4.6,-,N/A,,Mostly Cloudy,280,2014-06-10 00:21:00
8:53 PM,82.0,70.0,67,29.96,10.0,East,3.5,-,N/A,,Mostly Cloudy,100,2014-06-10 00:53:00
9:53 PM,80.1,69.1,69,29.97,10.0,SE,5.8,-,N/A,,Scattered Clouds,130,2014-06-10 01:53:00
10:53 PM,80.1,72.0,76,29.99,10.0,SE,5.8,-,N/A,,Scattered Clouds,140,2014-06-10 02:53:00
11:53 PM,78.1,73.0,84,30.00,10.0,ESE,6.9,-,N/A,,Partly Cloudy,120,2014-06-10 03:53:00